Location: Audinghen
(50.8518°N, 1.6129°E)
Time: 17:23:25
(UTC+00:00)

ARIANE 5 R/B - Pass Details

Date: 07 August 2020
Orbit: 749 x 795 km, 98.6° (Epoch: 24 September)

Event Time Altitude Azimuth Distance (km) Brightness Sun altitude
Rises 03:45:02 0° 10° (N) 3,294 6.6 -6.7°
Reaches altitude 10° 03:47:28 10° 3° (N) 2,366 5.6 -6.4°
Maximum altitude 03:52:20 41° 295° (WNW) 1,137 3.2 -5.8°
Drops below altitude 10° 03:57:12 10° 226° (SW) 2,362 4.4 -5.2°
Enters shadow 03:58:20 - 223° (SW) 2,787 4.8 -5.0°
